Погода в Камышевке

Россия / Курганская область     56°21′10″N   64°47′43″E
темп.,
°C
ветер,
м/с
пор.,
м/с
влажн.,
%
обл.,
%
осадки,
мм/ч
давл.,
гПа
погр.,
м
6 мая, чт
чт623:00+18зсз9144769 0.0 996624
02:00+12зсз8126690 0.0 999975
05:00+9з8126528 0.0 1002996
08:00+10з811585 0.0 10041165
11:00+13з9124092 0.0 10062243
14:00+12з9123897 0.0 10092286
17:00+13зсз8113568 0.0 10112277
20:00+10сз510435 0.0 1012564
7 мая, пт
пт723:00+7зсз36540 0.0 1015124
02:00+5з37600 0.0 1017145
05:00+4з36660 0.0 1019102
08:00+10з47480 0.0 1020501
11:00+15з463488 0.0 10211175
14:00+18з56315 0.0 10201482
17:00+19з45325 0.0 10201682
20:00+15юз22485 0.0 101923
8 мая, сб
сб823:00+12ююз33555 0.0 102031
02:00+10юз335749 0.0 102026
05:00+9ююз2261100 0.0 102011
08:00+14ю2247100 0.0 1020181
11:00+19ю2333100 0.0 10191296
14:00+20ю2327100 0.0 10182204
17:00+20юв1226100 0.0 10172369
20:00+16в2238100 0.0 101713
9 мая, вс
вс923:00+15всв1137100 0.0 101711
02:00+14св2240100 0.0 101615
05:00+13с2244100 0.0 101619
08:00+16ссв3543100 0.0 1017223
11:00+20св3534100 0.0 1016836
14:00+22всв6728100 0.0 10162887
17:00+22всв5730100 0.0 10152687
20:00+17св354972 0.0 101678
10 мая, пн
пн1023:00+15св5125596 0.0 1017310
02:00+13св376771 0.0 1018144
05:00+11св357562 0.0 101989
08:00+17св355999 0.0 1020422
11:00+21всв46384 0.0 10202044
14:00+23всв44319 0.0 10202217
17:00+23вюв22290 0.0 10202150
20:00+18ю33436 0.0 102032